Weather History for Warsaw, IN

Change the Weather History Date:

Saturday, October 26, 2013

  Actual Average Record
Temperature  
Mean Temperature 44 °F -  
Max Temperature 53 °F 57 °F 81 °F (1963)
Min Temperature 35 °F 38 °F 21 °F (1960)
Degree Days  
Heating Degree Days 21    
Moisture  
Dew Point 31 °F    
Average Humidity 62    
Maximum Humidity 87    
Minimum Humidity 50    
Precipitation  
Precipitation 0.00 in - - ()
Sea Level Pressure  
Sea Level Pressure 29.98 in    
Wind  
Wind Speed 12 mph (WSW)    
Max Wind Speed 21 mph    
Max Gust Speed 28 mph    
Visibility 10 miles    
Events Rain    
Averages and records for this station are not official NWS values.
T = Trace of Precipitation, MM = Missing Value Source: NWS Daily Summary

Daily Weather History Graph

Daily Weather History Graph

Search for Another Location

Airport:

Trip Planner

Search our weather history database for the weather conditions in past years. The results will help you decide how hot, cold, wet, or windy it might be!

Date:

Astronomy

Oct. 26, 2013 Rise Set
Actual Time 8:07 AM EDT 6:46 PM EDT
Civil Twilight 7:39 AM EDT 7:14 PM EDT
Nautical Twilight 7:07 AM EDT 7:46 PM EDT
Astronomical Twilight 6:35 AM EDT 8:18 PM EDT
Moon 12:05 AM EDT (10/26) 2:24 PM EDT (10/26)
Length of Visible Light 11h 34m
Length of Day
10h 38m
Waning Gibbous, 53% of the Moon is Illuminated
Oct 26
Waning Gibbous
Oct 26
Last Quarter
Nov 3
New
Nov 10
First Quarter
Nov 17
Full

Hourly Weather History & Observations

Time (EDT) Temp. Windchill Dew Point Humidity Pressure Visibility Wind Dir Wind Speed Gust Speed Precip Events Conditions
12:15 AM 39.2 °F 33.0 °F 26.6 °F 61% 30.16 in 10.0 mi SW 9.2 mph 16.1 mph N/A   Clear
12:35 AM 39.2 °F 33.6 °F 26.6 °F 61% 30.16 in 10.0 mi SW 8.1 mph 16.1 mph N/A   Clear
12:55 AM 39.2 °F 31.6 °F 26.6 °F 61% 30.15 in 10.0 mi SW 12.7 mph 18.4 mph N/A   Clear
1:15 AM 39.2 °F 31.6 °F 26.6 °F 61% 30.14 in 10.0 mi SW 12.7 mph 18.4 mph N/A   Clear
1:35 AM 39.2 °F 32.0 °F 26.6 °F 61% 30.13 in 10.0 mi SW 11.5 mph 18.4 mph N/A   Clear
1:55 AM 39.2 °F 31.6 °F 26.6 °F 61% 30.11 in 10.0 mi SW 12.7 mph 19.6 mph N/A   Scattered Clouds
2:15 AM 39.2 °F 31.6 °F 26.6 °F 61% 30.11 in 10.0 mi SW 12.7 mph 19.6 mph N/A   Mostly Cloudy
2:35 AM 39.2 °F 32.5 °F 26.6 °F 61% 30.10 in 10.0 mi SW 10.4 mph 23.0 mph N/A   Scattered Clouds
2:55 AM 39.2 °F 32.5 °F 26.6 °F 61% 30.09 in 10.0 mi SW 10.4 mph 20.7 mph N/A   Clear
3:15 AM 39.2 °F 31.6 °F 26.6 °F 61% 30.09 in 10.0 mi SW 12.7 mph 20.7 mph N/A   Scattered Clouds
3:35 AM 39.2 °F 32.0 °F 26.6 °F 61% 30.08 in 10.0 mi SW 11.5 mph 24.2 mph N/A   Mostly Cloudy
3:55 AM 39.2 °F 32.0 °F 26.6 °F 61% 30.07 in 10.0 mi SW 11.5 mph 20.7 mph N/A   Overcast
4:15 AM 39.2 °F 30.5 °F 26.6 °F 61% 30.07 in 10.0 mi WSW 16.1 mph 24.2 mph N/A   Overcast
4:35 AM 39.2 °F 30.8 °F 26.6 °F 61% 30.05 in 10.0 mi WSW 15.0 mph 25.3 mph N/A   Overcast
4:55 AM 39.2 °F 30.8 °F 26.6 °F 61% 30.04 in 10.0 mi SW 15.0 mph 26.5 mph N/A   Overcast
5:15 AM 39.2 °F 30.8 °F 26.6 °F 61% 30.02 in 10.0 mi SW 15.0 mph 26.5 mph N/A   Overcast
5:35 AM 39.2 °F 32.5 °F 26.6 °F 61% 30.02 in 10.0 mi WSW 10.4 mph 23.0 mph N/A   Overcast
5:55 AM 39.2 °F 31.6 °F 26.6 °F 61% 30.01 in 10.0 mi SW 12.7 mph 23.0 mph N/A   Overcast
6:15 AM 39.2 °F 33.0 °F 26.6 °F 61% 30.00 in 10.0 mi SW 9.2 mph 18.4 mph N/A   Overcast
6:35 AM 39.2 °F 31.6 °F 26.6 °F 61% 29.99 in 10.0 mi SW 12.7 mph 20.7 mph N/A   Overcast
6:55 AM 41.0 °F 33.9 °F 26.6 °F 57% 29.98 in 10.0 mi SW 12.7 mph 23.0 mph N/A   Overcast
7:15 AM 41.0 °F 33.9 °F 26.6 °F 57% 29.96 in 10.0 mi SW 12.7 mph 20.7 mph N/A   Overcast
7:35 AM 41.0 °F 34.3 °F 26.6 °F 57% 29.95 in 10.0 mi SW 11.5 mph 19.6 mph N/A   Overcast
7:55 AM 41.0 °F 34.3 °F 26.6 °F 57% 29.94 in 10.0 mi SW 11.5 mph 19.6 mph N/A   Overcast
8:15 AM 41.0 °F 34.3 °F 26.6 °F 57% 29.94 in 10.0 mi SW 11.5 mph 19.6 mph N/A   Overcast
8:35 AM 41.0 °F 35.8 °F 28.4 °F 61% 29.93 in 10.0 mi SW 8.1 mph 16.1 mph N/A   Overcast
8:55 AM 41.0 °F 34.7 °F 28.4 °F 61% 29.93 in 10.0 mi WSW 10.4 mph 19.6 mph N/A   Overcast
9:15 AM 41.0 °F 34.3 °F 28.4 °F 61% 29.93 in 10.0 mi SW 11.5 mph 23.0 mph N/A   Overcast
9:35 AM 41.0 °F 34.3 °F 28.4 °F 61% 29.93 in 10.0 mi SW 11.5 mph 17.3 mph N/A   Overcast
9:55 AM 41.0 °F 33.9 °F 28.4 °F 61% 29.92 in 10.0 mi SW 12.7 mph 21.9 mph N/A   Overcast
10:15 AM 41.0 °F 33.9 °F 30.2 °F 65% 29.91 in 10.0 mi SW 12.7 mph 19.6 mph N/A   Overcast
10:35 AM 42.8 °F 36.2 °F 30.2 °F 61% 29.89 in 10.0 mi SW 12.7 mph 20.7 mph N/A   Overcast
10:55 AM 42.8 °F 36.6 °F 30.2 °F 61% 29.90 in 10.0 mi WSW 11.5 mph 25.3 mph N/A   Overcast
11:15 AM 42.8 °F 34.0 °F 30.2 °F 61% 29.89 in 10.0 mi WSW 20.7 mph 25.3 mph N/A   Overcast
11:35 AM 44.6 °F 38.1 °F 32.0 °F 61% 29.89 in 10.0 mi WSW 13.8 mph 23.0 mph N/A   Overcast
11:55 AM 44.6 °F 38.1 °F 32.0 °F 61% 29.89 in 10.0 mi WSW 13.8 mph 21.9 mph N/A   Overcast
12:15 PM 44.6 °F 38.8 °F 32.0 °F 61% 29.88 in 10.0 mi SW 11.5 mph 24.2 mph N/A   Overcast
12:35 PM 46.4 °F 39.2 °F 32.0 °F 57% 29.88 in 10.0 mi WSW 18.4 mph 25.3 mph N/A   Overcast
12:55 PM 46.4 °F 39.8 °F 32.0 °F 57% 29.87 in 10.0 mi WSW 16.1 mph 24.2 mph N/A   Mostly Cloudy
1:15 PM 50.0 °F - 33.8 °F 54% 29.87 in 10.0 mi WSW 19.6 mph 26.5 mph N/A   Scattered Clouds
1:35 PM 50.0 °F - 33.8 °F 54% 29.87 in 10.0 mi West 18.4 mph 27.6 mph N/A   Mostly Cloudy
1:55 PM 50.0 °F - 33.8 °F 54% 29.86 in 10.0 mi WSW 18.4 mph 26.5 mph N/A   Overcast
2:15 PM 51.8 °F - 35.6 °F 54% 29.85 in 10.0 mi WSW 16.1 mph 26.5 mph N/A   Mostly Cloudy
2:35 PM 53.6 °F - 35.6 °F 51% 29.85 in 10.0 mi WSW 15.0 mph 23.0 mph N/A   Mostly Cloudy
2:55 PM 53.6 °F - 35.6 °F 51% 29.85 in 10.0 mi WSW 12.7 mph 20.7 mph N/A   Mostly Cloudy
3:15 PM 51.8 °F - 35.6 °F 54% 29.85 in 10.0 mi WNW 16.1 mph 24.2 mph N/A   Overcast
3:35 PM 51.8 °F - 33.8 °F 50% 29.86 in 10.0 mi WNW 18.4 mph 27.6 mph N/A   Mostly Cloudy
3:55 PM 51.8 °F - 33.8 °F 50% 29.88 in 10.0 mi West 16.1 mph 26.5 mph N/A   Scattered Clouds
4:15 PM 51.8 °F - 35.6 °F 54% 29.89 in 10.0 mi NW 13.8 mph 20.7 mph N/A   Mostly Cloudy
4:35 PM 50.0 °F - 35.6 °F 58% 29.90 in 10.0 mi NW 16.1 mph 24.2 mph N/A   Mostly Cloudy
4:55 PM 50.0 °F - 35.6 °F 58% 29.90 in 10.0 mi WNW 15.0 mph 21.9 mph N/A   Overcast
5:15 PM 50.0 °F - 35.6 °F 58% 29.91 in 10.0 mi NW 15.0 mph 18.4 mph N/A   Mostly Cloudy
5:35 PM 50.0 °F - 33.8 °F 54% 29.92 in 10.0 mi WNW 13.8 mph 24.2 mph N/A   Scattered Clouds
5:55 PM 50.0 °F - 33.8 °F 54% 29.93 in 10.0 mi NW 13.8 mph - N/A   Overcast
6:15 PM 48.2 °F - 35.6 °F 62% 29.94 in 10.0 mi NW 18.4 mph 24.2 mph N/A Rain Light Rain
6:35 PM 46.4 °F 40.1 °F 35.6 °F 66% 29.95 in 10.0 mi WNW 15.0 mph 21.9 mph N/A   Overcast
6:55 PM 46.4 °F 41.5 °F 35.6 °F 66% 29.97 in 10.0 mi NW 10.4 mph 17.3 mph N/A   Overcast
7:15 PM 46.4 °F 42.9 °F 33.8 °F 62% 29.98 in 10.0 mi NW 6.9 mph - N/A   Overcast
7:35 PM 46.4 °F 42.9 °F 33.8 °F 62% 29.98 in 10.0 mi NW 6.9 mph - N/A   Overcast
7:55 PM 44.6 °F 41.4 °F 33.8 °F 66% 29.99 in 10.0 mi NW 5.8 mph - N/A   Mostly Cloudy
8:15 PM 41.0 °F 38.0 °F 33.8 °F 76% 30.00 in 10.0 mi WNW 4.6 mph - N/A   Scattered Clouds
8:35 PM 41.0 °F 37.1 °F 33.8 °F 76% 30.01 in 10.0 mi WNW 5.8 mph - N/A   Mostly Cloudy
8:55 PM 41.0 °F 37.1 °F 33.8 °F 76% 30.01 in 10.0 mi West 5.8 mph - N/A   Mostly Cloudy
9:15 PM 39.2 °F 35.0 °F 32.0 °F 75% 30.03 in 10.0 mi West 5.8 mph - N/A   Clear
9:35 PM 39.2 °F 35.9 °F 32.0 °F 75% 30.03 in 10.0 mi West 4.6 mph - N/A   Clear
9:55 PM 39.2 °F 35.9 °F 32.0 °F 75% 30.04 in 10.0 mi West 4.6 mph - N/A   Clear
10:15 PM 41.0 °F 38.0 °F 32.0 °F 70% 30.04 in 10.0 mi West 4.6 mph - N/A   Clear
10:35 PM 37.4 °F - 32.0 °F 81% 30.05 in 10.0 mi Calm Calm - N/A   Clear
10:55 PM 37.4 °F - 33.8 °F 87% 30.05 in 10.0 mi Calm Calm - N/A   Clear
11:15 PM 35.6 °F 32.8 °F 32.0 °F 87% 30.06 in 10.0 mi WSW 3.5 mph - N/A   Scattered Clouds
11:35 PM 37.4 °F - 32.0 °F 81% 30.06 in 10.0 mi Calm Calm - N/A   Mostly Cloudy
11:55 PM 37.4 °F - 33.8 °F 87% 30.06 in 10.0 mi Calm Calm - N/A   Overcast